QPF
0.01 0.03 0.14 0.23 0.24 0.22 0.14 0.07 0.04 0.03 0.02 0.00 0.00 0.01 0.07 0.16 0.20 0.19 0.15 0.04 0.03 0.04 0.04 0.03 0.04 0.05 0.05 0.05 0.05 0.06 0.07 0.08 0.08 0.07 0.06 0.04 0.03 0.02 0.01 0.01 0.01 0.01 0.00 0.00 0.00 0.00 0.00 0.00 0.00
0.03 0.09 0.16 0.21 0.27 0.23 0.21 0.11 0.07 0.04 0.01 0.00 0.00 0.01 0.04 0.03 0.04 0.11 0.13 0.05 0.02 0.03 0.05 0.11 0.09 0.08 0.09 0.09 0.08 0.08 0.09 0.10 0.11 0.10 0.08 0.06 0.04 0.04 0.04 0.03 0.02 0.02 0.01 0.00 0.00 0.00 0.00 0.00 0.00
0.05 0.09 0.14 0.20 0.19 0.19 0.20 0.11 0.04 0.01 0.00 0.00 0.00 0.01 0.03 0.04 0.06 0.13 0.13 0.07 0.03 0.04 0.06 0.11 0.09 0.08 0.08 0.09 0.09 0.10 0.10 0.10 0.12 0.11 0.11 0.10 0.09 0.08 0.07 0.06 0.04 0.02 0.02 0.01 0.01 0.00 0.01 0.01 0.01
0.07 0.09 0.13 0.19 0.17 0.11 0.08 0.06 0.02 0.01 0.01 0.00 0.01 0.03 0.02 0.03 0.07 0.12 0.10 0.07 0.05 0.06 0.06 0.07 0.05 0.05 0.05 0.06 0.07 0.07 0.08 0.09 0.10 0.12 0.13 0.14 0.14 0.14 0.12 0.09 0.07 0.06 0.04 0.03 0.02 0.01 0.01 0.01 0.01
0.07 0.13 0.19 0.18 0.14 0.07 0.02 0.01 0.01 0.02 0.01 0.00 0.01 0.06 0.05 0.06 0.06 0.06 0.04 0.04 0.04 0.05 0.05 0.04 0.03 0.04 0.05 0.07 0.08 0.08 0.09 0.10 0.10 0.10 0.11 0.12 0.12 0.13 0.14 0.12 0.11 0.09 0.07 0.05 0.04 0.02 0.01 0.01 0.02
0.11 0.13 0.19 0.17 0.13 0.07 0.02 0.00 0.00 0.01 0.01 0.00 0.01 0.07 0.07 0.07 0.03 0.03 0.02 0.02 0.03 0.02 0.03 0.03 0.02 0.02 0.04 0.06 0.07 0.08 0.09 0.09 0.09 0.10 0.10 0.10 0.10 0.13 0.14 0.14 0.13 0.11 0.09 0.07 0.06 0.04 0.02 0.02 0.03
0.12 0.14 0.12 0.08 0.10 0.11 0.04 0.00 0.00 0.02 0.03 0.01 0.01 0.07 0.08 0.07 0.02 0.01 0.01 0.01 0.01 0.01 0.01 0.02 0.02 0.02 0.04 0.05 0.05 0.06 0.07 0.09 0.10 0.10 0.10 0.10 0.10 0.12 0.13 0.14 0.14 0.11 0.10 0.10 0.08 0.06 0.04 0.02 0.02
0.04 0.07 0.06 0.04 0.08 0.11 0.03 0.00 0.00 0.01 0.01 0.00 0.01 0.03 0.03 0.02 0.01 0.01 0.01 0.01 0.02 0.01 0.01 0.01 0.01 0.02 0.03 0.03 0.03 0.03 0.04 0.05 0.07 0.08 0.10 0.11 0.11 0.11 0.12 0.11 0.13 0.13 0.13 0.13 0.12 0.10 0.06 0.03 0.02
0.01 0.06 0.09 0.05 0.04 0.05 0.01 0.00 0.00 0.00 0.00 0.00 0.00 0.00 0.00 0.00 0.00 0.01 0.01 0.01 0.01 0.01 0.01 0.01 0.01 0.01 0.03 0.04 0.04 0.04 0.04 0.04 0.04 0.05 0.07 0.06 0.07 0.10 0.13 0.12 0.16 0.18 0.19 0.17 0.15 0.12 0.10 0.07 0.03
0.01 0.05 0.09 0.05 0.01 0.00 0.00 0.00 0.00 0.00 0.00 0.00 0.00 0.00 0.00 0.00 0.00 0.00 0.00 0.00 0.00 0.01 0.01 0.01 0.01 0.01 0.01 0.02 0.03 0.04 0.05 0.05 0.05 0.06 0.08 0.09 0.09 0.11 0.10 0.13 0.15 0.17 0.20 0.16 0.13 0.13 0.11 0.06 0.03
0.00 0.01 0.02 0.01 0.00 0.00 0.00 0.00 0.00 0.00 0.01 0.00 0.00 0.00 0.00 0.00 0.00 0.00 0.00 0.00 0.00 0.00 0.00 0.00 0.00 0.00 0.01 0.01 0.01 0.02 0.04 0.05 0.05 0.06 0.07 0.09 0.10 0.12 0.12 0.15 0.14 0.15 0.16 0.15 0.17 0.15 0.09 0.06 0.05
0.00 0.00 0.00 0.00 0.00 0.00 0.00 0.00 0.00 0.00 0.01 0.00 0.00 0.00 0.00 0.00 0.00 0.00 0.00 0.00 0.00 0.00 0.00 0.00 0.00 0.00 0.00 0.01 0.01 0.01 0.02 0.03 0.03 0.04 0.04 0.07 0.09 0.12 0.16 0.18 0.18 0.19 0.23 0.27 0.29 0.23 0.17 0.10 0.07
0.02 0.02 0.00 0.00 0.00 0.00 0.00 0.00 0.00 0.00 0.00 0.00 0.00 0.00 0.00 0.00 0.00 0.00 0.00 0.00 0.00 0.00 0.00 0.00 0.00 0.00 0.00 0.00 0.00 0.00 0.01 0.01 0.02 0.03 0.03 0.05 0.08 0.10 0.14 0.18 0.19 0.19 0.24 0.30 0.33 0.26 0.20 0.17 0.13
0.05 0.06 0.02 0.00 0.00 0.00 0.00 0.00 0.00 0.00 0.00 0.00 0.00 0.00 0.00 0.00 0.00 0.00 0.00 0.00 0.00 0.00 0.00 0.00 0.00 0.00 0.00 0.00 0.00 0.00 0.00 0.01 0.01 0.01 0.02 0.03 0.05 0.07 0.11 0.15 0.17 0.17 0.20 0.25 0.29 0.29 0.23 0.21 0.18
0.01 0.01 0.00 0.00 0.00 0.00 0.00 0.01 0.00 0.00 0.00 0.00 0.00 0.00 0.00 0.00 0.00 0.00 0.00 0.00 0.00 0.00 0.00 0.00 0.00 0.00 0.00 0.00 0.00 0.00 0.00 0.00 0.00 0.01 0.01 0.02 0.02 0.03 0.05 0.08 0.14 0.17 0.16 0.19 0.25 0.29 0.28 0.20 0.18
0.00 0.00 0.02 0.01 0.01 0.00 0.01 0.01 0.00 0.00 0.00 0.00 0.00 0.00 0.00 0.00 0.00 0.00 0.00 0.00 0.00 0.00 0.00 0.00 0.00 0.00 0.00 0.00 0.00 0.00 0.00 0.00 0.00 0.00 0.01 0.01 0.02 0.02 0.03 0.03 0.07 0.12 0.17 0.20 0.23 0.28 0.32 0.31 0.26
0.01 0.02 0.02 0.02 0.01 0.01 0.00 0.00 0.00 0.00 0.00 0.00 0.00 0.00 0.00 0.00 0.00 0.00 0.00 0.00 0.00 0.00 0.00 0.00 0.00 0.00 0.00 0.00 0.00 0.00 0.00 0.01 0.01 0.01 0.02 0.02 0.01 0.01 0.02 0.03 0.04 0.07 0.12 0.16 0.17 0.22 0.26 0.34 0.32
0.03 0.05 0.04 0.03 0.02 0.00 0.00 0.00 0.00 0.00 0.00 0.00 0.00 0.00 0.00 0.00 0.00 0.00 0.00 0.00 0.00 0.00 0.00 0.00 0.00 0.00 0.00 0.00 0.01 0.02 0.02 0.02 0.02 0.03 0.03 0.03 0.03 0.02 0.03 0.03 0.03 0.05 0.08 0.10 0.13 0.19 0.22 0.24 0.30
0.04 0.03 0.02 0.01 0.01 0.00 0.00 0.00 0.00 0.00 0.00 0.00 0.00 0.00 0.00 0.00 0.00 0.00 0.00 0.00 0.00 0.00 0.00 0.00 0.00 0.00 0.00 0.01 0.01 0.02 0.04 0.04 0.04 0.03 0.03 0.03 0.02 0.02 0.03 0.03 0.03 0.05 0.07 0.09 0.11 0.16 0.19 0.20 0.25
0.03 0.01 0.01 0.00 0.00 0.00 0.00 0.00 0.00 0.00 0.00 0.00 0.00 0.00 0.00 0.00 0.00 0.00 0.00 0.00 0.00 0.00 0.00 0.00 0.00 0.00 0.01 0.01 0.01 0.01 0.02 0.02 0.03 0.03 0.03 0.03 0.03 0.03 0.02 0.02 0.04 0.05 0.07 0.08 0.10 0.13 0.15 0.17 0.24
0.01 0.00 0.00 0.00 0.00 0.00 0.00 0.00 0.00 0.00 0.00 0.00 0.00 0.00 0.00 0.00 0.00 0.00 0.00 0.00 0.00 0.00 0.00 0.00 0.00 0.00 0.00 0.01 0.01 0.01 0.01 0.03 0.03 0.02 0.03 0.03 0.03 0.04 0.03 0.03 0.03 0.04 0.06 0.07 0.08 0.10 0.12 0.14 0.19
0.00 0.00 0.00 0.00 0.00 0.00 0.00 0.00 0.00 0.00 0.00 0.00 0.00 0.00 0.00 0.00 0.00 0.00 0.00 0.00 0.00 0.00 0.00 0.00 0.00 0.00 0.00 0.01 0.01 0.00 0.01 0.02 0.02 0.01 0.02 0.02 0.02 0.02 0.03 0.04 0.04 0.05 0.06 0.07 0.08 0.09 0.11 0.13 0.15
0.00 0.00 0.00 0.00 0.00 0.00 0.00 0.00 0.00 0.00 0.00 0.00 0.00 0.00 0.00 0.00 0.00 0.00 0.00 0.00 0.00 0.00 0.00 0.00 0.00 0.00 0.01 0.01 0.01 0.00 0.01 0.01 0.01 0.01 0.01 0.01 0.02 0.02 0.02 0.02 0.03 0.04 0.05 0.06 0.07 0.09 0.10 0.11 0.14
0.00 0.00 0.00 0.00 0.00 0.00 0.00 0.00 0.00 0.00 0.00 0.00 0.00 0.00 0.00 0.00 0.00 0.00 0.00 0.00 0.00 0.00 0.00 0.00 0.00 0.00 0.00 0.00 0.01 0.01 0.00 0.01 0.01 0.01 0.01 0.01 0.02 0.02 0.02 0.02 0.03 0.02 0.03 0.05 0.06 0.06 0.07 0.11 0.12
0.00 0.00 0.00 0.00 0.00 0.00 0.00 0.00 0.00 0.00 0.00 0.00 0.00 0.00 0.00 0.00 0.00 0.00 0.00 0.00 0.00 0.00 0.00 0.00 0.00 0.00 0.00 0.00 0.01 0.01 0.00 0.00 0.01 0.01 0.01 0.01 0.01 0.01 0.01 0.01 0.02 0.03 0.03 0.04 0.06 0.06 0.06 0.09 0.11
0.00 0.00 0.00 0.00 0.00 0.00 0.00 0.00 0.00 0.00 0.00 0.00 0.00 0.00 0.00 0.00 0.00 0.00 0.00 0.00 0.00 0.00 0.00 0.00 0.00 0.00 0.00 0.00 0.01 0.01 0.00 0.00 0.00 0.00 0.00 0.00 0.00 0.01 0.01 0.01 0.01 0.02 0.03 0.03 0.06 0.08 0.07 0.09 0.10
0.00 0.00 0.00 0.00 0.00 0.00 0.00 0.00 0.00 0.00 0.00 0.00 0.00 0.00 0.00 0.00 0.00 0.00 0.00 0.00 0.00 0.00 0.00 0.00 0.00 0.00 0.00 0.00 0.00 0.00 0.00 0.00 0.00 0.00 0.00 0.00 0.00 0.00 0.00 0.01 0.01 0.01 0.02 0.03 0.04 0.06 0.07 0.10 0.10
0.00 0.00 0.00 0.00 0.00 0.00 0.00 0.00 0.00 0.00 0.00 0.00 0.00 0.00 0.00 0.00 0.00 0.00 0.00 0.00 0.00 0.00 0.00 0.00 0.00 0.00 0.00 0.00 0.00 0.00 0.00 0.00 0.00 0.00 0.00 0.00 0.00 0.00 0.00 0.00 0.01 0.01 0.02 0.03 0.03 0.04 0.06 0.09 0.10
0.00 0.00 0.00 0.00 0.00 0.00 0.00 0.00 0.00 0.00 0.00 0.00 0.00 0.00 0.00 0.00 0.00 0.00 0.00 0.00 0.00 0.00 0.00 0.00 0.00 0.00 0.00 0.00 0.00 0.00 0.00 0.00 0.00 0.00 0.00 0.00 0.00 0.01 0.01 0.01 0.02 0.02 0.03 0.03 0.03 0.04 0.05 0.06 0.07
0.00 0.00 0.00 0.00 0.00 0.00 0.00 0.00 0.00 0.00 0.00 0.00 0.00 0.00 0.00 0.00 0.00 0.00 0.00 0.00 0.00 0.00 0.00 0.00 0.00 0.00 0.00 0.00 0.00 0.00 0.00 0.00 0.00 0.00 0.00 0.00 0.00 0.00 0.00 0.01 0.02 0.02 0.02 0.02 0.03 0.04 0.04 0.05 0.06
MSLP
1010.63 1011.72 1012.85 1013.87 1014.62 1015.02 1015.03 1014.69 1014.13 1013.50 1012.97 1012.66 1012.63 1012.85 1013.23 1013.64 1013.95 1014.06 1013.93 1013.62 1013.20 1012.78 1012.48 1012.37 1012.48 1012.75 1013.12 1013.50 1013.82 1014.02 1014.11 1014.12 1014.10 1014.10 1014.15 1014.27 1014.43 1014.60 1014.74 1014.83 1014.87 1014.85 1014.82 1014.79 1014.78 1014.80 1014.85 1014.90 1014.92
1010.93 1012.08 1013.22 1014.18 1014.83 1015.09 1014.96 1014.51 1013.88 1013.23 1012.73 1012.49 1012.54 1012.84 1013.29 1013.74 1014.06 1014.16 1014.01 1013.67 1013.22 1012.80 1012.50 1012.41 1012.53 1012.83 1013.23 1013.63 1013.97 1014.19 1014.29 1014.31 1014.29 1014.28 1014.31 1014.39 1014.51 1014.62 1014.71 1014.74 1014.73 1014.69 1014.65 1014.63 1014.66 1014.73 1014.83 1014.93 1014.99
1011.28 1012.48 1013.59 1014.47 1015.01 1015.13 1014.88 1014.33 1013.64 1012.99 1012.53 1012.35 1012.47 1012.84 1013.33 1013.80 1014.12 1014.21 1014.05 1013.70 1013.26 1012.86 1012.59 1012.52 1012.67 1012.99 1013.39 1013.80 1014.12 1014.34 1014.43 1014.45 1014.42 1014.40 1014.42 1014.47 1014.55 1014.61 1014.65 1014.63 1014.58 1014.52 1014.48 1014.48 1014.55 1014.67 1014.82 1014.97 1015.07
1011.68 1012.88 1013.94 1014.73 1015.14 1015.15 1014.79 1014.18 1013.47 1012.84 1012.43 1012.31 1012.49 1012.89 1013.40 1013.87 1014.18 1014.25 1014.09 1013.75 1013.34 1012.98 1012.75 1012.72 1012.90 1013.22 1013.60 1013.97 1014.26 1014.44 1014.50 1014.50 1014.46 1014.44 1014.45 1014.49 1014.55 1014.59 1014.59 1014.55 1014.48 1014.41 1014.38 1014.41 1014.50 1014.66 1014.86 1015.03 1015.16
1012.08 1013.25 1014.23 1014.91 1015.21 1015.11 1014.69 1014.06 1013.37 1012.80 1012.45 1012.40 1012.62 1013.04 1013.54 1013.98 1014.26 1014.31 1014.14 1013.83 1013.47 1013.16 1012.99 1013.01 1013.19 1013.49 1013.83 1014.13 1014.34 1014.45 1014.46 1014.42 1014.37 1014.35 1014.37 1014.43 1014.50 1014.55 1014.56 1014.52 1014.46 1014.40 1014.38 1014.43 1014.55 1014.73 1014.94 1015.13 1015.25
1012.42 1013.51 1014.38 1014.94 1015.14 1014.98 1014.55 1013.95 1013.33 1012.85 1012.60 1012.62 1012.88 1013.30 1013.77 1014.16 1014.38 1014.40 1014.23 1013.95 1013.64 1013.40 1013.28 1013.32 1013.50 1013.76 1014.02 1014.23 1014.34 1014.36 1014.30 1014.22 1014.16 1014.15 1014.20 1014.30 1014.41 1014.49 1014.54 1014.53 1014.49 1014.46 1014.46 1014.53 1014.66 1014.85 1015.05 1015.22 1015.32
1012.61 1013.59 1014.33 1014.77 1014.89 1014.71 1014.31 1013.80 1013.31 1012.97 1012.84 1012.94 1013.23 1013.64 1014.06 1014.38 1014.55 1014.53 1014.36 1014.10 1013.84 1013.65 1013.58 1013.64 1013.80 1013.99 1014.15 1014.24 1014.24 1014.16 1014.03 1013.91 1013.84 1013.85 1013.95 1014.10 1014.27 1014.41 1014.50 1014.53 1014.53 1014.53 1014.56 1014.64 1014.78 1014.96 1015.13 1015.27 1015.32
1012.63 1013.45 1014.06 1014.39 1014.45 1014.28 1013.96 1013.59 1013.26 1013.09 1013.10 1013.29 1013.63 1014.02 1014.38 1014.64 1014.73 1014.67 1014.49 1014.26 1014.04 1013.90 1013.87 1013.93 1014.04 1014.16 1014.22 1014.19 1014.07 1013.89 1013.69 1013.54 1013.47 1013.51 1013.65 1013.86 1014.08 1014.28 1014.41 1014.49 1014.52 1014.55 1014.60 1014.69 1014.83 1014.99 1015.14 1015.22 1015.23
1012.45 1013.12 1013.59 1013.83 1013.87 1013.74 1013.54 1013.33 1013.19 1013.19 1013.35 1013.64 1014.01 1014.38 1014.69 1014.87 1014.90 1014.81 1014.62 1014.41 1014.23 1014.13 1014.11 1014.16 1014.23 1014.27 1014.22 1014.09 1013.87 1013.60 1013.35 1013.18 1013.12 1013.19 1013.37 1013.61 1013.87 1014.09 1014.26 1014.36 1014.41 1014.45 1014.52 1014.62 1014.76 1014.91 1015.03 1015.08 1015.04
1012.14 1012.67 1013.02 1013.20 1013.23 1013.18 1013.10 1013.06 1013.11 1013.28 1013.57 1013.93 1014.32 1014.67 1014.93 1015.05 1015.03 1014.91 1014.72 1014.53 1014.39 1014.32 1014.32 1014.35 1014.37 1014.33 1014.20 1013.97 1013.67 1013.35 1013.07 1012.89 1012.84 1012.93 1013.12 1013.38 1013.65 1013.87 1014.03 1014.13 1014.18 1014.22 1014.30 1014.41 1014.55 1014.70 1014.82 1014.85 1014.77
1011.79 1012.21 1012.47 1012.61 1012.67 1012.69 1012.74 1012.85 1013.05 1013.36 1013.74 1014.16 1014.55 1014.87 1015.07 1015.14 1015.09 1014.95 1014.78 1014.63 1014.52 1014.48 1014.48 1014.50 1014.47 1014.38 1014.18 1013.89 1013.54 1013.19 1012.90 1012.72 1012.68 1012.77 1012.96 1013.20 1013.44 1013.63 1013.75 1013.81 1013.84 1013.88 1013.95 1014.08 1014.24 1014.41 1014.53 1014.57 1014.48
1011.50 1011.86 1012.08 1012.21 1012.30 1012.39 1012.54 1012.76 1013.07 1013.46 1013.88 1014.30 1014.67 1014.94 1015.10 1015.13 1015.06 1014.94 1014.80 1014.68 1014.61 1014.60 1014.61 1014.61 1014.56 1014.42 1014.18 1013.85 1013.48 1013.13 1012.84 1012.67 1012.64 1012.72 1012.89 1013.09 1013.27 1013.39 1013.45 1013.46 1013.45 1013.47 1013.54 1013.68 1013.88 1014.08 1014.23 1014.28 1014.21
1011.39 1011.72 1011.93 1012.07 1012.20 1012.35 1012.56 1012.84 1013.18 1013.58 1013.99 1014.37 1014.68 1014.90 1015.01 1015.02 1014.96 1014.86 1014.76 1014.70 1014.68 1014.69 1014.72 1014.71 1014.64 1014.47 1014.21 1013.87 1013.51 1013.17 1012.91 1012.75 1012.72 1012.78 1012.90 1013.04 1013.14 1013.18 1013.16 1013.11 1013.06 1013.06 1013.14 1013.30 1013.52 1013.76 1013.95 1014.04 1014.00
1011.51 1011.84 1012.07 1012.23 1012.38 1012.56 1012.78 1013.06 1013.38 1013.72 1014.05 1014.35 1014.58 1014.73 1014.80 1014.80 1014.77 1014.72 1014.68 1014.68 1014.71 1014.75 1014.79 1014.78 1014.70 1014.53 1014.26 1013.95 1013.61 1013.30 1013.06 1012.91 1012.87 1012.90 1012.97 1013.04 1013.06 1013.03 1012.94 1012.83 1012.74 1012.72 1012.80 1012.98 1013.23 1013.50 1013.74 1013.87 1013.85
1011.82 1012.18 1012.43 1012.61 1012.78 1012.95 1013.14 1013.36 1013.60 1013.84 1014.05 1014.24 1014.38 1014.46 1014.51 1014.52 1014.52 1014.53 1014.56 1014.62 1014.70 1014.78 1014.83 1014.83 1014.74 1014.58 1014.33 1014.04 1013.74 1013.47 1013.25 1013.12 1013.07 1013.06 1013.08 1013.07 1013.03 1012.92 1012.78 1012.64 1012.53 1012.50 1012.58 1012.76 1013.03 1013.32 1013.57 1013.73 1013.75
1012.27 1012.64 1012.90 1013.10 1013.26 1013.40 1013.53 1013.66 1013.78 1013.89 1013.97 1014.04 1014.09 1014.12 1014.15 1014.18 1014.23 1014.31 1014.41 1014.53 1014.65 1014.76 1014.82 1014.83 1014.76 1014.61 1014.40 1014.15 1013.89 1013.66 1013.47 1013.34 1013.27 1013.23 1013.19 1013.13 1013.02 1012.88 1012.71 1012.54 1012.43 1012.40 1012.47 1012.65 1012.91 1013.19 1013.45 1013.61 1013.65
1012.72 1013.09 1013.36 1013.56 1013.70 1013.80 1013.86 1013.88 1013.87 1013.84 1013.80 1013.76 1013.73 1013.72 1013.76 1013.83 1013.94 1014.08 1014.25 1014.41 1014.57 1014.70 1014.77 1014.79 1014.73 1014.62 1014.45 1014.25 1014.05 1013.85 1013.69 1013.56 1013.47 1013.38 1013.30 1013.19 1013.05 1012.88 1012.70 1012.54 1012.43 1012.40 1012.47 1012.62 1012.85 1013.10 1013.32 1013.47 1013.51
1013.09 1013.44 1013.70 1013.89 1014.01 1014.06 1014.04 1013.97 1013.85 1013.70 1013.55 1013.42 1013.34 1013.32 1013.37 1013.49 1013.66 1013.86 1014.08 1014.28 1014.46 1014.59 1014.67 1014.70 1014.67 1014.60 1014.49 1014.35 1014.20 1014.05 1013.91 1013.78 1013.66 1013.53 1013.40 1013.26 1013.09 1012.92 1012.75 1012.60 1012.51 1012.48 1012.53 1012.64 1012.81 1013.00 1013.17 1013.28 1013.31
1013.28 1013.61 1013.87 1014.05 1014.15 1014.16 1014.09 1013.94 1013.72 1013.48 1013.25 1013.06 1012.96 1012.95 1013.03 1013.20 1013.42 1013.67 1013.92 1014.14 1014.32 1014.45 1014.53 1014.57 1014.57 1014.55 1014.50 1014.43 1014.35 1014.25 1014.13 1014.00 1013.85 1013.69 1013.52 1013.34 1013.16 1012.98 1012.83 1012.70 1012.62 1012.59 1012.61 1012.68 1012.78 1012.89 1012.99 1013.05 1013.06
1013.30 1013.61 1013.87 1014.06 1014.16 1014.16 1014.05 1013.84 1013.56 1013.25 1012.97 1012.75 1012.64 1012.64 1012.76 1012.97 1013.24 1013.52 1013.79 1014.01 1014.17 1014.29 1014.36 1014.41 1014.44 1014.47 1014.49 1014.50 1014.49 1014.44 1014.35 1014.22 1014.05 1013.85 1013.64 1013.43 1013.23 1013.06 1012.92 1012.81 1012.74 1012.70 1012.69 1012.70 1012.72 1012.74 1012.77 1012.78 1012.77
1013.19 1013.51 1013.79 1014.01 1014.12 1014.13 1014.00 1013.76 1013.44 1013.08 1012.76 1012.52 1012.41 1012.43 1012.58 1012.82 1013.12 1013.42 1013.68 1013.88 1014.02 1014.11 1014.17 1014.22 1014.28 1014.36 1014.45 1014.54 1014.60 1014.61 1014.56 1014.43 1014.25 1014.02 1013.77 1013.53 1013.31 1013.13 1013.00 1012.90 1012.84 1012.79 1012.74 1012.69 1012.63 1012.58 1012.53 1012.49 1012.47
1013.04 1013.40 1013.73 1013.99 1014.15 1014.17 1014.04 1013.78 1013.42 1013.02 1012.66 1012.40 1012.28 1012.31 1012.48 1012.74 1013.05 1013.35 1013.60 1013.77 1013.88 1013.93 1013.97 1014.01 1014.09 1014.22 1014.37 1014.53 1014.65 1014.72 1014.71 1014.60 1014.40 1014.15 1013.87 1013.60 1013.37 1013.18 1013.04 1012.95 1012.89 1012.82 1012.74 1012.64 1012.52 1012.40 1012.28 1012.21 1012.17
1012.95 1013.37 1013.77 1014.11 1014.31 1014.36 1014.22 1013.93 1013.52 1013.08 1012.68 1012.38 1012.24 1012.26 1012.43 1012.69 1013.01 1013.30 1013.53 1013.67 1013.74 1013.76 1013.77 1013.80 1013.89 1014.04 1014.23 1014.44 1014.63 1014.74 1014.76 1014.67 1014.48 1014.22 1013.92 1013.63 1013.38 1013.18 1013.04 1012.95 1012.87 1012.79 1012.69 1012.55 1012.39 1012.21 1012.05 1011.93 1011.88
1012.98 1013.48 1013.97 1014.37 1014.61 1014.67 1014.52 1014.19 1013.73 1013.23 1012.76 1012.42 1012.23 1012.23 1012.39 1012.65 1012.96 1013.24 1013.46 1013.58 1013.62 1013.61 1013.58 1013.59 1013.67 1013.82 1014.03 1014.27 1014.49 1014.64 1014.70 1014.63 1014.45 1014.19 1013.89 1013.59 1013.33 1013.12 1012.97 1012.87 1012.79 1012.71 1012.59 1012.43 1012.23 1012.02 1011.82 1011.68 1011.60
1013.13 1013.72 1014.28 1014.73 1015.00 1015.06 1014.88 1014.49 1013.97 1013.39 1012.85 1012.45 1012.22 1012.18 1012.32 1012.57 1012.88 1013.16 1013.37 1013.48 1013.50 1013.46 1013.41 1013.39 1013.44 1013.57 1013.77 1014.01 1014.24 1014.41 1014.49 1014.45 1014.29 1014.05 1013.76 1013.47 1013.20 1013.00 1012.84 1012.74 1012.66 1012.57 1012.45 1012.28 1012.06 1011.83 1011.60 1011.42 1011.31
1013.37 1014.02 1014.62 1015.10 1015.37 1015.41 1015.18 1014.74 1014.14 1013.49 1012.88 1012.41 1012.14 1012.07 1012.19 1012.44 1012.75 1013.04 1013.26 1013.38 1013.39 1013.34 1013.26 1013.20 1013.21 1013.31 1013.47 1013.69 1013.91 1014.08 1014.17 1014.15 1014.02 1013.81 1013.54 1013.27 1013.02 1012.82 1012.68 1012.57 1012.49 1012.40 1012.27 1012.10 1011.89 1011.64 1011.39 1011.17 1011.01
1013.62 1014.29 1014.90 1015.36 1015.61 1015.60 1015.33 1014.83 1014.17 1013.46 1012.80 1012.28 1011.97 1011.88 1011.98 1012.23 1012.56 1012.87 1013.11 1013.25 1013.28 1013.22 1013.13 1013.04 1013.01 1013.05 1013.16 1013.34 1013.52 1013.68 1013.77 1013.77 1013.68 1013.50 1013.28 1013.04 1012.81 1012.63 1012.49 1012.39 1012.31 1012.22 1012.10 1011.93 1011.71 1011.46 1011.18 1010.92 1010.70
1013.78 1014.43 1015.00 1015.42 1015.62 1015.56 1015.24 1014.70 1014.01 1013.27 1012.59 1012.05 1011.72 1011.62 1011.72 1011.97 1012.31 1012.65 1012.92 1013.09 1013.14 1013.10 1013.01 1012.90 1012.83 1012.82 1012.88 1013.00 1013.14 1013.28 1013.36 1013.38 1013.32 1013.19 1013.01 1012.81 1012.62 1012.46 1012.33 1012.23 1012.15 1012.06 1011.94 1011.77 1011.55 1011.29 1011.00 1010.70 1010.42
1013.80 1014.38 1014.88 1015.22 1015.36 1015.26 1014.91 1014.36 1013.68 1012.95 1012.28 1011.76 1011.43 1011.33 1011.43 1011.69 1012.03 1012.39 1012.68 1012.88 1012.97 1012.95 1012.87 1012.76 1012.67 1012.62 1012.64 1012.71 1012.82 1012.93 1013.01 1013.04 1013.01 1012.93 1012.79 1012.64 1012.48 1012.33 1012.22 1012.12 1012.03 1011.93 1011.80 1011.63 1011.42 1011.15 1010.84 1010.51 1010.17
1013.65 1014.13 1014.53 1014.79 1014.86 1014.73 1014.38 1013.86 1013.22 1012.55 1011.93 1011.45 1011.15 1011.06 1011.16 1011.40 1011.74 1012.09 1012.40 1012.62 1012.73 1012.75 1012.70 1012.60 1012.51 1012.46 1012.45 1012.49 1012.57 1012.67 1012.75 1012.80 1012.80 1012.75 1012.66 1012.54 1012.41 1012.28 1012.16 1012.05 1011.94 1011.83 1011.69 1011.52 1011.30 1011.03 1010.72 1010.36 1009.99
Thickness
5819 5817 5813 5799 5779 5768 5768 5783 5794 5795 5800 5809 5812 5805 5790 5780 5771 5759 5782 5796 5797 5795 5790 5786 5782 5780 5778 5776 5775 5773 5772 5770 5769 5767 5766 5765 5764 5763 5763 5762 5762 5761 5761 5761 5761 5761 5762 5762 5763
5823 5820 5807 5790 5769 5756 5762 5783 5789 5796 5806 5814 5811 5803 5790 5781 5784 5780 5784 5792 5795 5792 5788 5783 5780 5777 5775 5774 5772 5771 5769 5768 5766 5765 5764 5763 5762 5762 5761 5761 5760 5760 5760 5759 5759 5759 5760 5760 5760
5826 5821 5800 5785 5771 5763 5766 5786 5794 5804 5812 5810 5802 5796 5783 5773 5778 5779 5784 5791 5791 5788 5783 5779 5776 5774 5772 5771 5769 5768 5766 5765 5764 5763 5762 5761 5761 5760 5760 5759 5759 5759 5758 5758 5758 5757 5758 5758 5758
5822 5809 5800 5782 5771 5782 5787 5793 5800 5799 5804 5807 5800 5783 5775 5778 5778 5780 5786 5788 5786 5783 5778 5774 5772 5770 5769 5768 5766 5765 5764 5762 5761 5761 5760 5759 5759 5758 5758 5758 5758 5757 5757 5757 5757 5756 5756 5756 5756
5820 5800 5783 5774 5776 5790 5798 5801 5802 5794 5794 5797 5792 5773 5766 5776 5781 5782 5782 5782 5779 5777 5774 5770 5768 5766 5765 5764 5763 5762 5760 5760 5759 5758 5758 5757 5757 5756 5756 5756 5756 5756 5756 5756 5755 5755 5754 5754 5755
5804 5798 5771 5763 5774 5789 5798 5803 5800 5792 5791 5793 5787 5772 5763 5775 5776 5776 5777 5775 5773 5771 5768 5765 5763 5762 5761 5760 5759 5758 5757 5757 5757 5756 5755 5755 5755 5754 5754 5754 5754 5754 5755 5755 5754 5754 5753 5753 5754
5797 5789 5775 5774 5777 5781 5792 5802 5794 5788 5784 5785 5787 5767 5762 5769 5772 5774 5772 5770 5767 5765 5763 5761 5759 5758 5756 5755 5755 5754 5753 5753 5754 5754 5753 5753 5753 5753 5752 5752 5753 5753 5753 5753 5753 5753 5753 5752 5753
5813 5796 5780 5776 5776 5777 5794 5797 5795 5788 5781 5789 5786 5764 5756 5764 5771 5769 5766 5764 5761 5759 5757 5755 5753 5752 5751 5751 5750 5749 5749 5749 5749 5751 5751 5751 5751 5751 5751 5751 5751 5752 5752 5752 5752 5752 5752 5752 5752
5817 5787 5767 5773 5779 5781 5793 5789 5789 5791 5781 5777 5774 5767 5764 5768 5767 5761 5757 5754 5752 5751 5750 5749 5747 5745 5745 5745 5745 5744 5744 5744 5745 5746 5747 5747 5748 5748 5749 5750 5750 5750 5751 5751 5751 5751 5751 5751 5752
5808 5779 5774 5787 5794 5789 5790 5787 5785 5780 5768 5763 5762 5764 5765 5763 5758 5751 5746 5743 5741 5741 5741 5741 5740 5739 5739 5739 5739 5738 5738 5738 5739 5741 5742 5743 5744 5745 5746 5748 5748 5749 5748 5748 5749 5749 5750 5750 5752
5806 5789 5791 5796 5799 5795 5787 5784 5785 5772 5758 5759 5754 5755 5756 5754 5750 5744 5740 5737 5735 5735 5733 5733 5732 5732 5732 5732 5732 5731 5731 5732 5733 5735 5736 5738 5739 5740 5742 5744 5744 5745 5746 5746 5747 5747 5748 5749 5752
5801 5799 5801 5796 5797 5792 5785 5781 5775 5768 5761 5765 5760 5756 5751 5746 5741 5738 5734 5732 5731 5728 5725 5726 5724 5724 5724 5723 5723 5723 5725 5726 5727 5728 5730 5731 5733 5735 5736 5738 5740 5741 5743 5743 5744 5745 5746 5748 5752
5793 5791 5796 5794 5791 5789 5784 5775 5769 5761 5764 5763 5757 5751 5745 5740 5737 5735 5733 5730 5727 5722 5721 5720 5718 5716 5715 5715 5715 5717 5718 5720 5721 5722 5723 5725 5726 5728 5731 5733 5735 5737 5739 5740 5741 5742 5743 5746 5749
5792 5786 5787 5789 5786 5784 5774 5769 5764 5759 5762 5756 5750 5745 5742 5736 5733 5730 5728 5723 5721 5718 5716 5714 5711 5710 5708 5707 5707 5708 5710 5712 5713 5715 5716 5718 5719 5721 5723 5726 5729 5732 5734 5736 5738 5738 5739 5742 5745
5800 5784 5780 5783 5781 5780 5772 5757 5760 5762 5759 5750 5746 5743 5738 5735 5731 5728 5724 5721 5718 5714 5713 5710 5707 5704 5701 5699 5698 5700 5701 5703 5705 5706 5708 5710 5712 5714 5717 5720 5723 5727 5730 5731 5732 5734 5735 5738 5741
5790 5777 5762 5773 5774 5773 5759 5743 5759 5761 5753 5745 5743 5741 5735 5733 5732 5729 5724 5719 5716 5712 5708 5706 5703 5699 5696 5694 5693 5693 5694 5694 5696 5697 5699 5702 5704 5707 5710 5713 5716 5721 5723 5726 5727 5728 5729 5733 5736
5772 5757 5753 5759 5771 5769 5758 5747 5754 5759 5752 5744 5743 5741 5737 5734 5732 5729 5724 5718 5714 5710 5706 5702 5699 5695 5692 5690 5688 5687 5687 5687 5688 5689 5691 5693 5695 5699 5702 5705 5709 5714 5717 5719 5722 5724 5725 5727 5730
5751 5746 5747 5755 5765 5765 5756 5754 5756 5759 5752 5746 5744 5742 5739 5735 5731 5729 5723 5719 5714 5709 5705 5700 5696 5692 5689 5686 5683 5681 5680 5680 5681 5682 5683 5685 5687 5691 5694 5698 5702 5706 5709 5712 5715 5718 5721 5723 5726
5759 5755 5757 5764 5768 5761 5754 5756 5759 5759 5752 5746 5744 5742 5740 5737 5736 5731 5725 5719 5713 5708 5703 5698 5693 5690 5686 5681 5678 5675 5674 5674 5676 5677 5677 5679 5681 5684 5687 5690 5694 5698 5701 5705 5709 5712 5714 5717 5721
5761 5758 5762 5767 5769 5760 5753 5755 5765 5761 5754 5750 5746 5743 5742 5737 5733 5729 5724 5718 5712 5706 5701 5697 5692 5688 5684 5680 5677 5675 5673 5672 5673 5673 5673 5674 5676 5678 5681 5684 5687 5691 5694 5698 5702 5705 5707 5711 5715
5761 5759 5759 5756 5762 5762 5750 5746 5757 5762 5759 5754 5749 5745 5742 5737 5731 5726 5721 5716 5711 5706 5701 5697 5692 5688 5684 5680 5677 5673 5672 5671 5669 5668 5669 5671 5673 5675 5676 5678 5681 5685 5688 5691 5695 5699 5701 5702 5708
5755 5764 5760 5754 5743 5742 5749 5726 5749 5755 5750 5749 5747 5744 5741 5738 5733 5726 5721 5715 5711 5707 5702 5697 5692 5688 5684 5680 5676 5671 5667 5665 5665 5666 5667 5669 5671 5672 5673 5674 5677 5679 5682 5685 5689 5694 5696 5697 5698
5759 5764 5758 5753 5744 5739 5748 5734 5744 5753 5744 5746 5747 5745 5743 5739 5733 5727 5722 5717 5713 5708 5703 5698 5693 5689 5685 5681 5677 5673 5669 5667 5666 5666 5666 5666 5668 5669 5670 5671 5672 5674 5677 5680 5683 5686 5690 5693 5694
5763 5757 5754 5751 5742 5726 5748 5739 5737 5746 5747 5748 5748 5747 5744 5740 5735 5729 5725 5720 5715 5711 5705 5700 5695 5690 5687 5683 5680 5676 5672 5669 5666 5665 5664 5664 5665 5666 5667 5667 5668 5670 5672 5675 5678 5681 5684 5687 5689
5754 5740 5726 5723 5720 5733 5755 5741 5741 5751 5756 5752 5748 5746 5745 5741 5735 5730 5725 5720 5716 5711 5707 5703 5698 5692 5689 5685 5682 5679 5675 5671 5668 5665 5663 5662 5662 5662 5663 5664 5664 5666 5668 5671 5673 5676 5678 5681 5684
5751 5745 5723 5715 5729 5741 5747 5739 5745 5759 5759 5756 5753 5749 5745 5741 5737 5733 5728 5723 5718 5715 5711 5706 5701 5696 5692 5688 5684 5681 5678 5673 5669 5667 5664 5662 5661 5660 5661 5661 5662 5663 5665 5667 5668 5670 5672 5676 5678
5746 5745 5752 5733 5737 5734 5746 5749 5747 5758 5755 5753 5751 5748 5744 5742 5739 5735 5732 5727 5723 5719 5715 5710 5705 5700 5696 5691 5687 5684 5679 5675 5671 5668 5666 5663 5661 5660 5660 5660 5660 5661 5662 5662 5663 5664 5666 5669 5672
5751 5748 5742 5730 5721 5724 5743 5744 5740 5744 5749 5752 5751 5748 5747 5746 5743 5739 5734 5730 5727 5723 5719 5715 5710 5705 5700 5695 5691 5687 5682 5678 5674 5670 5666 5663 5661 5660 5659 5659 5658 5658 5658 5658 5658 5658 5660 5662 5665
5740 5739 5738 5735 5735 5719 5718 5728 5758 5753 5754 5753 5754 5755 5752 5749 5745 5741 5737 5734 5731 5727 5723 5718 5714 5708 5703 5698 5693 5688 5685 5681 5677 5672 5669 5665 5662 5660 5659 5658 5656 5655 5654 5653 5653 5652 5654 5656 5658
5752 5747 5742 5725 5730 5735 5721 5728 5763 5760 5760 5758 5757 5758 5757 5753 5749 5745 5741 5736 5732 5728 5724 5720 5716 5711 5706 5700 5695 5691 5687 5683 5678 5674 5670 5667 5663 5661 5659 5657 5654 5652 5650 5649 5647 5646 5648 5649 5651